Regional Weather Roundup
Issued by NWS Little Rock, AR

Home | Current Version | Previous Version | Graphics & Text | Print | Product List | Glossary On
Versions: 1 2 3 4 5 6 7 8 9 10 11 12 13 14 15 16 17 18 19 20 21 22 23 24 25 26 27 28 29 30 31 32 33 34 35 36 37 38 39 40 41 42 43 44 45 46 47 48 49 50
689
ASUS44 KLZK 251505
RWRLZK

WEATHER ROUNDUP FOR ARKANSAS
NATIONAL WEATHER SERVICE LITTLE ROCK AR
900 AM CST SUN FEB 25 2018

NOTE: "FAIR" INDICATES FEW OR NO CLOUDS BELOW 12,000 FEET WITH NO
SIGNIFICANT WEATHER AND/OR OBSTRUCTIONS TO VISIBILITY.

ARZ001-003-010-029-251600-
NORTHWEST ARKANSAS

CITY           SKY/WX    TMP DP  RH WIND       PRES   REMARKS
FAYETTEVILLE   SUNNY     36  36 100 CALM      30.12R
FORT SMITH     LGT RAIN  37  37 100 E7        30.13R VSB 1/4
HARRISON       SUNNY     40  35  83 S5        30.11R
BENTONVILLE    SUNNY     36  34  92 S6        30.13R
ROGERS         SUNNY     36  35  96 SE7       30.12R
SILOAM SPGS    SUNNY     36  34  92 S5        30.12R
HIGHFILL       SUNNY     33  33 100 S7        30.12R WCI  27
SPRINGDALE     SUNNY     32  32 100 CALM      30.13R
$$

ARZ004-005-016-251600-
NORTH CENTRAL ARKANSAS

CITY           SKY/WX    TMP DP  RH WIND       PRES   REMARKS
BATESVILLE     CLOUDY    44  35  70 CALM      30.16R
FLIPPIN        SUNNY     37  35  92 CALM      30.15R
MTN HOME       SUNNY     37  37 100 S7        30.12R
$$

ARZ040-041-251600-
WEST CENTRAL ARKANSAS

CITY           SKY/WX    TMP DP  RH WIND       PRES   REMARKS
MENA           SUNNY     43  41  93 CALM      30.12R
MOUNT IDA      CLOUDY    42  41  96 CALM      30.10R
$$

ARZ009-017-025-026-028-251600-
NORTHEAST ARKANSAS

CITY           SKY/WX    TMP DP  RH WIND       PRES   REMARKS
JONESBORO      FAIR      45  36  70 NW3       30.15R
NEWPORT          N/A     44  36  73 N5        30.17R
WALNUT RIDGE   FAIR      43  34  70 W3        30.17R
BLYTHEVILLE    FAIR      46  38  73 N6        30.15R
$$

ARZ022-023-033-042-044-251600-
CENTRAL ARKANSAS

CITY           SKY/WX    TMP DP  RH WIND       PRES   REMARKS
LITTLE ROCK    PTSUNNY   47  38  71 E7        30.15R
N LITTLE ROCK    N/A     46  39  77 E3        30.11R
JACKSONVILLE   CLOUDY    47  37  68 NE7       30.13S
SEARCY         FAIR      45  40  82 MISG      30.15S
HOT SPRINGS    CLOUDY    47  40  76 E5        30.13R
RUSSELLVILLE   MOSUNNY   42  41  96 CALM      30.14R
CLINTON        FAIR      37  37 100 CALM      30.15S FOG
$$

ARZ036-251600-
EAST ARKANSAS

CITY           SKY/WX    TMP DP  RH WIND       PRES   REMARKS
WEST MEMPHIS   FAIR      46  41  82 N5        30.14R
$$

ARZ050-053-066-070-073-251600-
SOUTHWEST ARKANSAS

CITY           SKY/WX    TMP DP  RH WIND       PRES   REMARKS
ARKADELPHIA    FAIR      49  42  77 E5        30.15R
CAMDEN         FAIR      50  45  81 CALM      30.14R
TEXARKANA      CLOUDY    49  44  83 E7        30.11R
EL DORADO      FAIR      52  50  93 NE8       30.12R
DE QUEEN       MOSUNNY   45  43  93 E3        30.13R
$$

ARZ056-057-069-251600-
SOUTHEAST ARKANSAS

CITY           SKY/WX    TMP DP  RH WIND       PRES   REMARKS
PINE BLUFF     FAIR      48  40  73 NE7       30.15R
STUTTGART      FAIR      48  38  68 NE8       30.14S
MONTICELLO     FAIR      52  47  83 E7        30.13R

$$






USA.gov is the U.S. government's official web portal to all federal, state and local government web resources and services.